Location: B?ezina
(49.8085°N, 13.6013°E)
Time: 00:11:18
(UTC+00:00)

Cosmos 1656 - Pass Details

Date: 19 May 2025
Orbit: 797 x 848 km, 71.1° (Epoch: 22 June)

Event Time Altitude Azimuth Distance (km) Brightness Sun altitude
Rises 19:49:55 0° 328° (NNW) 3,408 8.8 -8.3°
Reaches altitude 10° 19:52:26 10° 323° (NW) 2,464 7.8 -8.6°
Maximum altitude 19:57:53 51° 249° (WSW) 1,039 4.4 -9.2°
Drops below altitude 10° 20:03:13 10° 175° (S) 2,415 5.6 -9.8°
Enters shadow 20:04:02 - 173° (S) 2,719 5.9 -9.9°
